Weather History for KMFI - September, 2013

Change the Weather History Date:

Friday, September 27, 2013

  Actual Average Record
Temperature  
Mean Temperature 66 °F -  
Max Temperature 81 °F 66 °F 84 °F (1987)
Min Temperature 51 °F 42 °F 27 °F (1942)
Growing Degree Days 16 (Base 50)    
Moisture  
Dew Point 50 °F    
Average Humidity 61    
Maximum Humidity 86    
Minimum Humidity 38    
Precipitation  
Precipitation 0.00 in - - ()
Sea Level Pressure  
Sea Level Pressure 30.05 in    
Wind  
Wind Speed 8 mph (SSE)    
Max Wind Speed 18 mph    
Max Gust Speed 30 mph    
Visibility 10 miles    
Events      
Averages and records for this station are not official NWS values.
T = Trace of Precipitation, MM = Missing Value Source: NWS Daily Summary

Daily Weather History Graph

Daily Weather History Graph

Search for Another Location

Airport or City:

Trip Planner

Search our weather history database for the weather conditions in past years. The results will help you decide how hot, cold, wet, or windy it might be!

Date:

Astronomy

Sep. 27, 2013 Rise Set
Actual Time 6:54 AM CDT 6:48 PM CDT
Civil Twilight 6:25 AM CDT 7:17 PM CDT
Nautical Twilight 5:51 AM CDT 7:51 PM CDT
Astronomical Twilight 5:16 AM CDT 8:25 PM CDT
Moon No Moon Rise 2:39 PM CDT (9/27)
Length of Visible Light 12h 52m
Length of Day
11h 54m
Last Quarter, 45% of the Moon is Illuminated
Sep 27
Last Quarter
Oct 4
New
Oct 11
First Quarter
Oct 18
Full
Oct 26
Last Quarter

Hourly Weather History & Observations

Time (CDT) Temp. Heat Index Dew Point Humidity Pressure Visibility Wind Dir Wind Speed Gust Speed Precip Events Conditions
12:54 AM 55.9 °F - 48.9 °F 77% 30.07 in 10.0 mi SE 5.8 mph - N/A   Clear
1:54 AM 55.9 °F - 48.0 °F 75% 30.08 in 10.0 mi SE 6.9 mph - N/A   Clear
2:54 AM 55.0 °F - 46.9 °F 74% 30.08 in 10.0 mi SSE 4.6 mph - N/A   Clear
3:54 AM 55.0 °F - 48.0 °F 77% 30.09 in 10.0 mi SE 5.8 mph - N/A   Clear
4:54 AM 53.1 °F - 46.9 °F 80% 30.09 in 10.0 mi ESE 4.6 mph - N/A   Clear
5:54 AM 51.1 °F - 46.0 °F 83% 30.09 in 10.0 mi East 4.6 mph - N/A   Clear
6:54 AM 51.1 °F - 46.9 °F 86% 30.10 in 10.0 mi ESE 5.8 mph - N/A   Clear
7:27 AM 53.6 °F - 48.2 °F 82% 30.10 in 7.0 mi South 5.8 mph - N/A   Partly Cloudy
7:54 AM 55.9 °F - 48.9 °F 77% 30.10 in 10.0 mi SSE 5.8 mph - N/A   Partly Cloudy
8:54 AM 62.1 °F - 50.0 °F 65% 30.10 in 10.0 mi South 8.1 mph - N/A   Clear
9:54 AM 66.0 °F - 52.0 °F 60% 30.09 in 10.0 mi SSE 12.7 mph - N/A   Clear
10:54 AM 72.0 °F - 54.0 °F 53% 30.09 in 10.0 mi South 10.4 mph - N/A   Clear
11:54 AM 75.9 °F - 55.0 °F 48% 30.08 in 10.0 mi South 15.0 mph - N/A   Clear
12:54 PM 79.0 °F - 55.0 °F 44% 30.06 in 10.0 mi South 17.3 mph - N/A   Clear
1:54 PM 80.1 °F 80.1 °F 55.0 °F 42% 30.04 in 10.0 mi South 18.4 mph 29.9 mph N/A   Clear
2:54 PM 80.1 °F 80.0 °F 54.0 °F 40% 30.01 in 10.0 mi South 15.0 mph - N/A   Clear
3:54 PM 80.1 °F 79.9 °F 53.1 °F 39% 29.99 in 10.0 mi SSE 15.0 mph 23.0 mph N/A   Clear
4:54 PM 75.9 °F - 48.9 °F 38% 29.99 in 10.0 mi SSE 15.0 mph 23.0 mph N/A   Clear
5:54 PM 75.0 °F - 48.9 °F 40% 29.99 in 10.0 mi SSE 16.1 mph 21.9 mph N/A   Clear
6:54 PM 72.0 °F - 48.0 °F 43% 30.01 in 10.0 mi SSE 9.2 mph - N/A   Clear
7:54 PM 66.9 °F - 48.0 °F 51% 30.01 in 10.0 mi SSE 4.6 mph - N/A   Clear
8:54 PM 68.0 °F - 48.9 °F 50% 30.02 in 10.0 mi SSE 8.1 mph - N/A   Clear
9:54 PM 66.9 °F - 51.1 °F 57% 30.01 in 10.0 mi SSE 10.4 mph - N/A   Clear
10:54 PM 64.0 °F - 53.1 °F 67% 30.01 in 10.0 mi SE 9.2 mph - N/A   Clear
11:54 PM 63.0 °F - 52.0 °F 67% 30.00 in 10.0 mi SE 8.1 mph - N/A   Clear